Location: Stonelick Lake State Park
(39.2170°N, 84.0850°W)
Time: 16:46:15
(UTC-04:00)

Amateur Radio Satellites - All Passes

Search period start: 30 August 2016 16:16
Search period end: 31 August 2016 16:16
Location: Stonelick Lake State Park, 39.2170°N, 84.0850°W

Satellite Date Start Highest point End Downlink Frequencies (MHz)
Time Altitude Azimuth
ITUPSAT 1 30 Aug 16:18:33 16:23:20 82° 285° (WNW) 16:28:07 437.325
ITAMSAT 1 30 Aug 16:18:34 16:23:32 45° 261° (W) 16:28:30 435.822/435.867
ISS 30 Aug 16:23:15 16:25:38 19° 229° (SW) 16:28:00 145.825
KKS-1 30 Aug 16:25:19 16:26:59 12° 91° (E) 16:28:39 437.445
HORYU 2 30 Aug 16:43:58 16:46:39 16° 64° (ENE) 16:49:19 437.375
SWISSCUBE 30 Aug 16:50:16 16:54:34 34° 290° (WNW) 16:58:51 437.505
MOZHAYETS 4 30 Aug 16:51:57 16:56:07 34° 97° (E) 17:00:17
STARS 30 Aug 16:52:51 16:54:05 11° 91° (E) 16:55:19 437.465
BEESAT 30 Aug 17:07:19 17:11:15 26° 293° (WNW) 17:15:11 436.000
Cubesat XI-IV 30 Aug 17:34:53 17:36:55 12° 59° (ENE) 17:38:57 437.490
NOAA 15 30 Aug 17:35:08 17:38:15 16° 61° (ENE) 17:41:21 137.62
AO-7 30 Aug 17:41:00 17:48:09 31° 263° (W) 17:55:22 29.400- 29.500
GOMX 1 30 Aug 17:42:00 17:44:32 14° 61° (ENE) 17:47:07 467.674
CUTE-I 30 Aug 17:44:35 17:47:35 15° 61° (ENE) 17:50:35 437.470
Cosmos 2491 30 Aug 17:45:30 17:52:30 28° 83° (E) 17:59:31 435.465 / 435.565
KKS-1 30 Aug 17:59:31 18:03:54 58° 286° (WNW) 18:08:15 437.445
YUBILEINY 30 Aug 18:03:04 18:11:49 68° 80° (E) 18:20:27 435.215
Cosmos 2504 30 Aug 18:11:13 18:16:53 24° 70° (ENE) 18:22:31 435.465 / 435.565
HORYU 2 30 Aug 18:18:29 18:22:48 48° 260° (W) 18:27:06 437.375
BEESAT 2 30 Aug 18:18:47 18:21:53 21° 48° (NE) 18:24:56 435.950
BRITE-PL 30 Aug 18:19:33 18:24:25 63° 74° (ENE) 18:29:42 437.365/2234.400
CUBESAT XI-V 30 Aug 18:20:35 18:24:58 38° 98° (E) 18:29:20 437.345
STARS 30 Aug 18:26:29 18:30:49 61° 286° (WNW) 18:35:07 437.465
MOZHAYETS 4 30 Aug 18:29:32 18:33:05 22° 293° (WNW) 18:36:37
BEESAT 3 30 Aug 18:29:45 18:33:37 48° 55° (NE) 18:37:27 437.485
LilacSat-2 30 Aug 18:33:45 18:37:12 33° 72° (ENE) 18:40:40 437.200
NOAA 18 30 Aug 18:49:20 18:54:44 55° 71° (ENE) 19:00:07 137.9125
DOVE 4 30 Aug 19:07:04 19:11:54 40° 71° (ENE) 19:16:50 437.250
Cubesat XI-IV 30 Aug 19:10:51 19:16:13 88° 254° (WSW) 19:21:35 437.490
NOAA 15 30 Aug 19:12:14 19:17:26 66° 258° (WSW) 19:22:42 137.62
GOMX 1 30 Aug 19:16:40 19:21:47 80° 258° (WSW) 19:27:15 467.674
CUTE-I 30 Aug 19:21:43 19:27:01 69° 258° (WSW) 19:32:21 437.470
CINEMA 3 30 Aug 19:25:36 19:28:53 18° 65° (ENE) 19:32:07 145.822/145.860
Cosmos 2491 30 Aug 19:40:07 19:48:41 60° 281° (WNW) 19:57:21 435.465 / 435.565
BEESAT 2 30 Aug 19:56:07 19:59:47 35° 245° (WSW) 20:03:26 435.950
CUBESAT XI-V 30 Aug 19:58:33 20:02:05 21° 293° (WNW) 20:05:37 437.345
BRITE-PL 30 Aug 20:00:48 20:03:26 14° 272° (W) 20:06:10 437.365/2234.400
YUBILEINY 30 Aug 20:01:15 20:07:44 24° 279° (W) 20:14:14 435.215
Cosmos 2504 30 Aug 20:03:41 20:10:39 55° 269° (W) 20:17:37 435.465 / 435.565
HO-68 30 Aug 20:05:40 20:12:32 50° 67° (ENE) 20:19:24 435.675
BEESAT 3 30 Aug 20:08:55 20:10:50 13° 251° (WSW) 20:12:46 437.485
LilacSat-2 30 Aug 20:09:15 20:11:35 15° 267° (W) 20:13:55 437.200
SEEDS 30 Aug 20:21:06 20:24:41 28° 70° (ENE) 20:28:16 437.485
AIST 1 30 Aug 20:28:13 20:32:11 32° 76° (ENE) 20:36:06
NOAA 18 30 Aug 20:31:54 20:35:41 19° 267° (W) 20:39:30 137.9125
AAUSAT CUBESAT 2 30 Aug 20:42:36 20:46:02 27° 70° (ENE) 20:49:31 437.432
DOVE 4 30 Aug 20:45:27 20:49:39 25° 267° (W) 20:53:57 437.250
UWE-3 30 Aug 20:47:51 20:51:17 22° 68° (ENE) 20:54:39 435.000/436.395/437.385
CANX-2 30 Aug 20:48:53 20:53:05 78° 259° (W) 20:57:17 2200.000
PCSat 30 Aug 20:50:29 20:55:39 42° 56° (NE) 21:00:46 145.827
COMPASS 1 30 Aug 20:53:30 20:57:26 46° 73° (ENE) 21:01:24 437.405
CUTE 1.7 + AOD 2 30 Aug 20:54:17 20:58:29 79° 258° (WSW) 21:02:42 437.475
ZACube-1 30 Aug 20:55:29 20:58:13 16° 66° (ENE) 21:00:56 437.345
CUBEBUG 2 30 Aug 20:56:22 21:00:42 40° 72° (ENE) 21:04:57 437.445
AIST 2 30 Aug 20:58:00 21:01:57 39° 53° (NE) 21:05:53 435.215
STRAND 1 30 Aug 21:00:39 21:05:47 84° 102° (ESE) 21:10:54 437.568
CINEMA 3 30 Aug 21:00:40 21:05:34 53° 260° (W) 21:10:26 145.822/145.860
PRISM 30 Aug 21:22:17 21:24:26 14° 92° (E) 21:26:34 437.425
Cosmos 2491 30 Aug 21:46:47 21:47:39 10° 304° (NW) 21:48:32 435.465 / 435.565
DELFI C3 30 Aug 21:52:40 21:55:55 25° 70° (ENE) 21:59:11 145.870
Oscar 11 30 Aug 21:54:09 21:58:25 71° 75° (ENE) 22:02:43 145.826/435.025
HO-68 30 Aug 21:54:16 22:00:25 30° 264° (W) 22:06:36 435.675
SEEDS 30 Aug 21:57:11 22:00:22 21° 266° (W) 22:03:34 437.485
FUNcube-1 30 Aug 22:06:12 22:10:38 89° 261° (W) 22:14:59 145.935
AIST 1 30 Aug 22:06:22 22:09:31 20° 273° (W) 22:12:39
AAUSAT CUBESAT 2 30 Aug 22:18:16 22:21:29 22° 265° (W) 22:24:43 437.432
GONETS M04 30 Aug 22:19:52 22:26:22 22° 65° (ENE) 22:32:47
AUBIESAT-1 30 Aug 22:23:17 22:24:35 11° 57° (ENE) 22:25:54 437.475
UWE-3 30 Aug 22:23:23 22:27:32 34° 263° (W) 22:31:36 435.000/436.395/437.385
ZACube-1 30 Aug 22:29:55 22:34:09 44° 261° (W) 22:38:20 437.345
M-CUBED/EXP-1 PRIME 30 Aug 22:30:14 22:33:09 17° 59° (ENE) 22:36:03 437.505
COMPASS 1 30 Aug 22:31:20 22:33:15 13° 269° (W) 22:35:09 437.405
CUBEBUG 2 30 Aug 22:34:07 22:37:25 19° 267° (W) 22:40:40 437.445
PCSat 30 Aug 22:34:23 22:38:46 26° 253° (WSW) 22:43:09 145.827
AIST 2 30 Aug 22:37:12 22:40:08 19° 249° (WSW) 22:43:04 435.215
STRAND 1 30 Aug 22:42:24 22:44:13 12° 300° (WNW) 22:46:02 437.568
TIGRISAT 30 Aug 22:45:04 22:45:55 10° 90° (E) 22:46:45 435.000
HUMSAT D 30 Aug 22:45:53 22:49:55 52° 74° (ENE) 22:53:55 437.325/437.525
ESTCUBE 1 30 Aug 22:50:33 22:50:54 10° 61° (ENE) 22:51:15 437.505/2401.250
PRISM 30 Aug 22:55:56 22:59:57 45° 287° (WNW) 23:03:56 437.425
Cosmos 2499 30 Aug 22:58:09 23:03:45 24° 70° (ENE) 23:09:23 435.465 / 435.565
UNISAT 6 30 Aug 23:12:32 23:16:03 25° 95° (E) 23:19:33 437.425
O/OREOS (USA 219) 30 Aug 23:20:22 23:24:17 26° 60° (ENE) 23:28:10 437.305
CUBEBUG 1 30 Aug 23:21:52 23:24:19 15° 64° (ENE) 23:26:45 437.445
DELFI C3 30 Aug 23:27:40 23:30:42 21° 265° (W) 23:33:46 145.870
VELOX 1 30 Aug 23:29:04 23:31:30 15° 64° (ENE) 23:33:56 145.980
SO-50 30 Aug 23:32:44 23:37:31 62° 118° (ESE) 23:42:18 436.795
DX 1 30 Aug 23:35:34 23:36:54 11° 62° (ENE) 23:38:15 434.975-435.025
ANTELSAT 30 Aug 23:48:48 23:53:04 65° 102° (ESE) 23:57:17 437.575/2403.000
RS-15 30 Aug 23:49:19 23:56:15 18° 97° (E) 00:03:21 29.354- 29.394
AUBIESAT-1 30 Aug 23:53:42 23:58:21 87° 250° (WSW) 00:02:59 437.475
M-CUBED/EXP-1 PRIME 31 Aug 00:02:33 00:07:10 58° 255° (WSW) 00:11:49 437.505
CUSAT 1 31 Aug 00:05:21 00:08:22 89° 282° (WNW) 00:12:13 437.405
UKube-1 31 Aug 00:07:16 00:10:21 19° 66° (ENE) 00:13:26 .
JAS-2 31 Aug 00:15:08 00:19:27 16° 90° (E) 00:23:54 435.910
GONETS M04 31 Aug 00:15:16 00:24:09 79° 266° (W) 00:32:57
AISAT 31 Aug 00:16:13 00:20:31 48° 73° (ENE) 00:24:50 437.250
TIGRISAT 31 Aug 00:18:47 00:22:59 59° 285° (WNW) 00:27:09 435.000
ESTCUBE 1 31 Aug 00:22:33 00:27:01 79° 259° (W) 00:31:32 437.505/2401.250
HUMSAT D 31 Aug 00:24:27 00:25:49 11° 269° (W) 00:27:11 437.325/437.525
PHONESAT 2.4 31 Aug 00:31:52 00:34:06 19° 150° (SSE) 00:36:19 2401.200-2431.200
QB50P1 31 Aug 00:38:14 00:41:59 30° 97° (E) 00:45:41 145.935-145.965
POPSAT HIP 1 31 Aug 00:48:26 00:52:24 39° 98° (E) 00:56:20 437.405
UNISAT 6 31 Aug 00:49:10 00:52:42 26° 291° (WNW) 00:56:13 437.425
Cosmos 2499 31 Aug 00:50:22 00:57:12 54° 269° (W) 01:04:10 435.465 / 435.565
50 SAT 31 Aug 00:50:49 00:54:21 64° 259° (W) 00:57:56 437.505
CUBEBUG 1 31 Aug 00:55:51 01:00:08 51° 261° (W) 01:04:28 437.445
SPROUT 31 Aug 00:56:35 01:00:51 64° 74° (ENE) 01:05:07 437.525
O/OREOS (USA 219) 31 Aug 00:59:39 01:03:38 29° 257° (WSW) 01:07:35 437.305
VELOX 1 31 Aug 01:03:10 01:07:29 52° 260° (W) 01:11:52 145.980
TISAT 1 31 Aug 01:04:21 01:07:03 17° 66° (ENE) 01:09:45 437.305
DX 1 31 Aug 01:08:09 01:12:30 68° 258° (WSW) 01:16:52 434.975-435.025
DUCHIFAT 1 31 Aug 01:11:41 01:15:52 67° 102° (ESE) 01:19:59 145.980
SO-50 31 Aug 01:14:56 01:18:23 19° 316° (NW) 01:21:50 436.795
QB50P2 31 Aug 01:19:36 01:23:50 80° 284° (WNW) 01:28:01 145.880/145.840
POLYITAN 1 31 Aug 01:22:07 01:26:20 79° 283° (WNW) 01:30:30 437.675
NANOSAT C BR1 31 Aug 01:27:18 01:31:30 73° 285° (WNW) 01:35:40 145.865
ANTELSAT 31 Aug 01:28:09 01:29:12 11° 297° (WNW) 01:30:15 437.575/2403.000
DANDE 31 Aug 01:37:51 01:39:34 15° 290° (WNW) 01:41:24 436.750
UKube-1 31 Aug 01:42:09 01:46:07 36° 262° (W) 01:50:08 .
ITUPSAT 1 31 Aug 01:50:19 01:51:38 11° 61° (ENE) 01:52:58 437.325
BUGSAT 1 31 Aug 01:51:58 01:56:06 81° 100° (E) 02:00:09 437.445
AISAT 31 Aug 01:54:46 01:57:14 15° 268° (W) 01:59:43 437.250
RS-15 31 Aug 01:55:07 02:06:36 82° 118° (ESE) 02:18:46 29.354- 29.394
JAS-2 31 Aug 01:57:55 02:04:59 88° 282° (WNW) 02:12:43 435.910
PHONESAT 2.4 31 Aug 02:07:08 02:10:09 78° 163° (SSE) 02:13:09 2401.200-2431.200
QB50P1 31 Aug 02:14:24 02:17:33 21° 292° (WNW) 02:20:42 145.935-145.965
GONETS M04 31 Aug 02:15:31 02:19:23 14° 285° (WNW) 02:23:15
SWISSCUBE 31 Aug 02:18:30 02:22:18 25° 67° (ENE) 02:26:08 437.505
POPSAT HIP 1 31 Aug 02:25:10 02:27:51 17° 294° (WNW) 02:30:32 437.405
BEESAT 31 Aug 02:34:45 02:38:56 32° 69° (ENE) 02:43:09 436.000
SPROUT 31 Aug 02:36:45 02:37:10 10° 270° (W) 02:37:36 437.525
TISAT 1 31 Aug 02:38:20 02:42:21 41° 261° (W) 02:46:23 437.305
DUCHIFAT 1 31 Aug 02:50:18 02:50:58 10° 297° (WNW) 02:51:37 145.980
Oscar 19 31 Aug 03:09:51 03:15:05 86° 101° (E) 03:20:17 437.125/150
Gurwin Techsat 1B 31 Aug 03:10:28 03:15:25 39° 98° (E) 03:20:21 435.225
KKS-1 31 Aug 03:23:25 03:24:33 11° 62° (ENE) 03:25:40 437.445
ITUPSAT 1 31 Aug 03:24:01 03:28:46 81° 258° (WSW) 03:33:33 437.325
PHONESAT 2.4 31 Aug 03:43:34 03:46:33 65° 3° (N) 03:49:32 2401.200-2431.200
JAS-2 31 Aug 03:44:54 03:49:13 18° 300° (WNW) 03:53:45 435.910
AO-7 31 Aug 03:51:37 03:56:48 18° 91° (E) 04:01:55 29.400- 29.500
MOZHAYETS 4 31 Aug 03:52:55 03:56:48 29° 69° (ENE) 04:00:43
SWISSCUBE 31 Aug 03:55:40 03:59:56 33° 263° (W) 04:04:13 437.505
Cosmos 2491 31 Aug 03:58:21 04:01:39 12° 58° (ENE) 04:04:56 435.465 / 435.565
RS-15 31 Aug 04:10:06 04:20:31 35° 324° (NW) 04:31:25 29.354- 29.394
BEESAT 31 Aug 04:12:50 04:16:43 25° 265° (W) 04:20:38 436.000
ITAMSAT 1 31 Aug 04:32:07 04:37:18 69° 102° (ESE) 04:42:27 435.822/435.867
Gurwin Techsat 1B 31 Aug 04:50:51 04:55:08 25° 294° (WNW) 04:59:26 435.225
Oscar 19 31 Aug 04:51:43 04:53:38 12° 300° (WNW) 04:55:33 437.125/150
KKS-1 31 Aug 04:56:00 05:00:29 75° 258° (WSW) 05:04:59 437.445
AO-85 31 Aug 05:11:08 05:16:22 59° 118° (ESE) 05:21:21 145.980
YUBILEINY 31 Aug 05:11:19 05:15:27 14° 76° (ENE) 05:19:35 435.215
PHONESAT 2.4 31 Aug 05:19:57 05:22:54 60° 198° (SSW) 05:25:51 2401.200-2431.200
STARS 31 Aug 05:21:31 05:25:57 81° 257° (WSW) 05:30:25 437.465
CUBESAT XI-V 31 Aug 05:22:53 05:26:57 32° 70° (ENE) 05:31:05 437.345
MOZHAYETS 4 31 Aug 05:30:08 05:33:55 25° 265° (W) 05:37:43
AO-7 31 Aug 05:42:07 05:50:29 88° 289° (WNW) 05:58:46 29.400- 29.500
Cosmos 2491 31 Aug 05:51:32 06:00:21 67° 80° (E) 06:09:08 435.465 / 435.565
HORYU 2 31 Aug 06:10:29 06:14:29 33° 98° (E) 06:18:26 437.375
ITAMSAT 1 31 Aug 06:13:20 06:16:10 15° 299° (WNW) 06:18:59 435.822/435.867
BRITE-PL 31 Aug 06:25:54 06:30:36 26° 93° (E) 06:35:08 437.365/2234.400
RS-15 31 Aug 06:30:13 06:38:23 20° 358° (N) 06:46:41 29.354- 29.394
STRAND 1 31 Aug 06:39:43 06:41:59 13° 61° (ENE) 06:44:16 437.568
Cosmos 2504 31 Aug 06:48:45 06:54:51 23° 83° (E) 07:00:41 435.465 / 435.565
AO-85 31 Aug 06:53:12 06:57:10 21° 314° (NW) 07:00:58 145.980
PHONESAT 2.4 31 Aug 06:57:19 06:58:51 13° 213° (SSW) 07:00:21 2401.200-2431.200
CUBESAT XI-V 31 Aug 07:00:42 07:04:21 23° 266° (W) 07:08:03 437.345
YUBILEINY 31 Aug 07:01:54 07:10:43 81° 95° (E) 07:19:35 435.215
DOVE 4 31 Aug 07:10:13 07:11:27 11° 87° (E) 07:12:40 437.250
NOAA 18 31 Aug 07:13:05 07:17:31 25° 95° (E) 07:21:54 137.9125
GOMX 1 31 Aug 07:20:14 07:25:09 36° 96° (E) 07:29:46 467.674
ISS 31 Aug 07:25:39 07:28:17 22° 132° (SE) 07:30:54 145.825
NOAA 15 31 Aug 07:28:24 07:33:35 51° 100° (E) 07:38:45 137.62
Cubesat XI-IV 31 Aug 07:29:23 07:34:23 40° 99° (E) 07:39:21 437.490
AO-7 31 Aug 07:36:37 07:42:07 20° 308° (NW) 07:47:36 29.400- 29.500
CUTE-I 31 Aug 07:39:51 07:45:02 51° 100° (E) 07:50:11 437.470
LilacSat-2 31 Aug 07:41:52 07:45:36 58° 100° (E) 07:49:18 437.200
HORYU 2 31 Aug 07:47:27 07:50:49 22° 293° (WNW) 07:54:10 437.375
Cosmos 2491 31 Aug 07:49:42 07:56:22 25° 279° (W) 08:03:03 435.465 / 435.565
BRITE-PL 31 Aug 08:03:49 08:09:09 42° 290° (WNW) 08:14:17 437.365/2234.400
SO-50 31 Aug 08:05:28 08:09:49 39° 52° (NE) 08:14:02 436.795
STRAND 1 31 Aug 08:15:24 08:20:30 77° 257° (WSW) 08:25:37 437.568
CANX-2 31 Aug 08:35:43 08:38:47 19° 94° (E) 08:41:50 2200.000
Cosmos 2504 31 Aug 08:39:14 08:47:34 67° 279° (W) 08:55:22 435.465 / 435.565
CUTE 1.7 + AOD 2 31 Aug 08:41:02 08:44:04 19° 94° (E) 08:47:07 437.475
DOVE 4 31 Aug 08:44:48 08:49:45 72° 285° (WNW) 08:54:22 437.250
RS-15 31 Aug 08:45:59 08:56:37 32° 33° (NNE) 09:07:10 29.354- 29.394
NOAA 18 31 Aug 08:53:11 08:58:17 41° 291° (WNW) 09:03:20 137.9125
AIST 1 31 Aug 08:56:59 09:00:10 20° 87° (E) 09:03:23
CINEMA 3 31 Aug 08:57:02 09:01:11 38° 97° (E) 09:05:09 145.822/145.860
CUSAT 1 31 Aug 08:57:50 09:00:01 11° 64° (ENE) 09:02:17 437.405
GOMX 1 31 Aug 08:58:35 09:02:59 27° 293° (WNW) 09:07:11 467.674
ISS 31 Aug 09:01:31 09:04:36 37° 328° (NNW) 09:07:42 145.825
YUBILEINY 31 Aug 09:02:16 09:08:33 21° 295° (WNW) 09:14:52 435.215
NOAA 15 31 Aug 09:09:09 09:12:58 20° 296° (WNW) 09:16:45 137.62
Cubesat XI-IV 31 Aug 09:09:57 09:14:12 25° 295° (WNW) 09:18:27 437.490
CUTE-I 31 Aug 09:20:54 09:24:40 20° 296° (WNW) 09:28:26 437.470
HO-68 31 Aug 09:21:44 09:28:47 57° 102° (ESE) 09:35:47 435.675
SEEDS 31 Aug 09:40:45 09:44:57 65° 101° (E) 09:49:09 437.485
PRISM 31 Aug 09:43:44 09:47:50 76° 258° (WSW) 09:51:58 437.425
Oscar 11 31 Aug 09:43:54 09:46:11 14° 92° (E) 09:48:29 145.826/435.025
TIGRISAT 31 Aug 09:44:02 09:44:14 10° 62° (ENE) 09:44:25 435.000
BEESAT 2 31 Aug 09:46:26 09:50:13 47° 117° (ESE) 09:54:03 435.950
SO-50 31 Aug 09:46:34 09:49:59 21° 249° (WSW) 09:53:20 436.795
BEESAT 3 31 Aug 09:56:19 10:00:10 62° 303° (WNW) 10:04:06 437.485
FUNcube-1 31 Aug 09:56:21 09:59:07 17° 93° (E) 10:01:52 145.935
AAUSAT CUBESAT 2 31 Aug 10:00:20 10:04:28 58° 100° (E) 10:08:34 437.432
UNISAT 6 31 Aug 10:10:28 10:13:55 22° 68° (ENE) 10:17:19 437.425
CANX-2 31 Aug 10:10:52 10:14:41 33° 289° (WNW) 10:18:30 2200.000
COMPASS 1 31 Aug 10:12:25 10:16:37 78° 284° (WNW) 10:20:49 437.405
UWE-3 31 Aug 10:13:44 10:17:47 48° 99° (E) 10:21:46 435.000/436.395/437.385
CUTE 1.7 + AOD 2 31 Aug 10:16:09 10:19:59 33° 288° (WNW) 10:23:48 437.475
ZACube-1 31 Aug 10:19:19 10:23:06 34° 97° (E) 10:26:53 437.345
CUBEBUG 2 31 Aug 10:24:35 10:28:48 79° 284° (WNW) 10:32:55 437.445
DANDE 31 Aug 10:29:29 10:34:15 24° 74° (ENE) 10:39:53 436.750
AIST 1 31 Aug 10:33:40 10:37:32 31° 284° (WNW) 10:41:27
CINEMA 3 31 Aug 10:35:01 10:37:59 18° 295° (WNW) 10:40:52 145.822/145.860
CUSAT 1 31 Aug 10:36:03 10:42:55 65° 79° (E) 10:50:48 437.405
Cosmos 2504 31 Aug 10:40:20 10:42:23 11° 299° (WNW) 10:44:24 435.465 / 435.565
ISS 31 Aug 10:40:30 10:41:48 12° 347° (NNW) 10:43:07 145.825
ANTELSAT 31 Aug 10:46:07 10:50:33 51° 73° (ENE) 10:54:53 437.575/2403.000
RS-15 31 Aug 10:58:37 11:11:05 87° 59° (ENE) 11:23:16 29.354- 29.394
DELFI C3 31 Aug 11:05:04 11:08:58 48° 99° (E) 11:12:51 145.870
HO-68 31 Aug 11:10:14 11:16:03 28° 299° (WNW) 11:21:50 435.675
TIGRISAT 31 Aug 11:15:42 11:20:17 81° 257° (WSW) 11:24:47 435.000
Oscar 11 31 Aug 11:18:24 11:22:34 46° 287° (WNW) 11:26:41 145.826/435.025
SEEDS 31 Aug 11:19:05 11:20:05 11° 297° (WNW) 11:21:05 437.485
GONETS M04 31 Aug 11:20:28 11:27:08 25° 81° (E) 11:33:50
BEESAT 2 31 Aug 11:25:44 11:28:18 16° 314° (NW) 11:30:53 435.950
QB50P1 31 Aug 11:29:59 11:33:12 21° 68° (ENE) 11:36:25 145.935-145.965
PCSat 31 Aug 11:30:53 11:36:02 47° 112° (ESE) 11:41:14 145.827
FUNcube-1 31 Aug 11:31:43 11:35:28 34° 288° (WNW) 11:39:12 145.935
Cosmos 2499 31 Aug 11:34:24 11:40:07 22° 83° (E) 11:45:33 435.465 / 435.565
AAUSAT CUBESAT 2 31 Aug 11:37:55 11:39:26 12° 296° (WNW) 11:40:56 437.432
POPSAT HIP 1 31 Aug 11:39:59 11:43:34 26° 69° (ENE) 11:47:08 437.405
UNISAT 6 31 Aug 11:46:13 11:50:24 35° 263° (W) 11:54:32 437.425
UWE-3 31 Aug 11:51:48 11:53:49 13° 295° (WNW) 11:55:48 435.000/436.395/437.385
ZACube-1 31 Aug 11:56:19 11:59:08 18° 293° (WNW) 12:01:57 437.345
JUGNU 31 Aug 11:58:53 12:00:26 11° 180° (S) 12:02:00 437.505
DUCHIFAT 1 31 Aug 12:02:14 12:06:14 41° 72° (ENE) 12:10:15 145.980
HUMSAT D 31 Aug 12:05:33 12:09:37 68° 284° (WNW) 12:13:41 437.325/437.525
QB50P2 31 Aug 12:10:42 12:14:55 65° 75° (ENE) 12:19:10 145.880/145.840
JAS-2 31 Aug 12:10:44 12:15:20 32° 66° (ENE) 12:20:16 435.910
DANDE 31 Aug 12:11:11 12:17:04 58° 264° (W) 12:24:30 436.750
POLYITAN 1 31 Aug 12:13:11 12:17:25 66° 75° (ENE) 12:21:40 437.675
ESTCUBE 1 31 Aug 12:16:38 12:20:16 23° 95° (E) 12:23:54 437.505/2401.250
NANOSAT C BR1 31 Aug 12:17:52 12:22:06 69° 75° (ENE) 12:26:20 145.865
ISS 31 Aug 12:18:48 12:19:29 10° 8° (N) 12:20:10 145.825
CUSAT 1 31 Aug 12:19:04 12:24:34 25° 272° (W) 12:30:37 437.405
50 SAT 31 Aug 12:22:21 12:23:07 10° 92° (E) 12:23:53 437.505
ANTELSAT 31 Aug 12:25:01 12:27:29 14° 268° (W) 12:29:57 437.575/2403.000
AIST 2 31 Aug 12:32:18 12:36:22 69° 302° (WNW) 12:40:30 435.215
BUGSAT 1 31 Aug 12:40:10 12:44:14 47° 73° (ENE) 12:48:20 437.445
DELFI C3 31 Aug 12:41:34 12:43:23 13° 295° (WNW) 12:45:12 145.870
CUBEBUG 1 31 Aug 12:45:40 12:49:36 30° 97° (E) 12:53:29 437.445
SPROUT 31 Aug 12:45:48 12:47:18 12° 91° (E) 12:48:47 437.525
Oscar 19 31 Aug 12:49:29 12:52:02 14° 61° (ENE) 12:54:34 437.125/150
VELOX 1 31 Aug 12:54:29 12:58:26 30° 97° (E) 13:02:20 145.980
DX 1 31 Aug 12:58:02 13:01:26 22° 95° (E) 13:04:49 434.975-435.025
QB50P1 31 Aug 13:04:58 13:08:46 31° 263° (W) 13:12:36 145.935-145.965
AUBIESAT-1 31 Aug 13:08:36 13:12:32 83° 106° (ESE) 13:16:09 437.475
RS-15 31 Aug 13:13:02 13:21:59 25° 260° (W) 13:30:50 29.354- 29.394
GONETS M04 31 Aug 13:14:27 13:23:08 66° 280° (W) 13:31:56
PCSat 31 Aug 13:15:12 13:19:39 25° 310° (NW) 13:24:07 145.827
POPSAT HIP 1 31 Aug 13:15:45 13:19:16 25° 265° (W) 13:22:48 437.405
M-CUBED/EXP-1 PRIME 31 Aug 13:18:02 13:21:59 59° 291° (WNW) 13:25:34 437.505
Cosmos 2499 31 Aug 13:24:33 13:32:35 67° 279° (W) 13:40:04 435.465 / 435.565
UKube-1 31 Aug 13:29:58 13:34:02 38° 99° (E) 13:38:03 .
O/OREOS (USA 219) 31 Aug 13:31:25 13:35:29 35° 104° (ESE) 13:39:36 437.305
DUCHIFAT 1 31 Aug 13:39:34 13:42:06 15° 267° (W) 13:44:38 145.980
AISAT 31 Aug 13:43:34 13:48:02 71° 285° (WNW) 13:52:25 437.250
SRMSAT 31 Aug 13:44:08 13:45:19 11° 177° (S) 13:46:30 437.500
AO-85 31 Aug 13:44:44 13:48:36 32° 51° (NE) 13:52:13 145.980
ESTCUBE 1 31 Aug 13:53:04 13:57:05 31° 290° (WNW) 14:01:04 437.505/2401.250
50 SAT 31 Aug 13:53:24 13:56:54 43° 286° (WNW) 14:00:23 437.505
ISS 31 Aug 13:54:00 13:56:51 26° 28° (NNE) 13:59:40 145.825
JAS-2 31 Aug 13:55:55 14:00:26 29° 265° (W) 14:05:16 435.910
ITAMSAT 1 31 Aug 14:13:43 14:15:27 12° 59° (ENE) 14:17:12 435.822/435.867
BUGSAT 1 31 Aug 14:17:42 14:19:50 14° 268° (W) 14:22:00 437.445
SPROUT 31 Aug 14:19:22 14:23:33 55° 286° (WNW) 14:27:42 437.525
CUBEBUG 1 31 Aug 14:22:13 14:25:42 23° 292° (WNW) 14:29:10 437.445
TISAT 1 31 Aug 14:23:18 14:27:02 30° 97° (E) 14:30:44 437.305
Oscar 19 31 Aug 14:25:32 14:30:41 74° 257° (WSW) 14:35:53 437.125/150
Gurwin Techsat 1B 31 Aug 14:30:21 14:35:32 56° 72° (ENE) 14:40:44 435.225
VELOX 1 31 Aug 14:31:11 14:34:44 24° 292° (WNW) 14:38:15 145.980
DX 1 31 Aug 14:33:46 14:37:39 31° 290° (WNW) 14:41:29 434.975-435.025
AO-7 31 Aug 14:49:26 14:55:54 26° 56° (NE) 15:02:22 29.400- 29.500
UKube-1 31 Aug 15:06:47 15:09:46 18° 294° (WNW) 15:12:45 .
O/OREOS (USA 219) 31 Aug 15:11:29 15:14:58 22° 302° (WNW) 15:18:29 437.305
GONETS M04 31 Aug 15:18:49 15:21:53 12° 302° (WNW) 15:24:58
AO-85 31 Aug 15:25:41 15:28:46 20° 250° (WSW) 15:31:43 145.980
Cosmos 2499 31 Aug 15:25:55 15:27:04 10° 299° (WNW) 15:28:13 435.465 / 435.565
ITUPSAT 1 31 Aug 15:25:57 15:30:02 28° 96° (E) 15:34:07 437.325
ISS 31 Aug 15:30:18 15:33:22 36° 224° (SW) 15:36:24 145.825
ITAMSAT 1 31 Aug 15:48:58 15:54:10 87° 258° (WSW) 15:59:22 435.822/435.867
SWISSCUBE 31 Aug 15:56:10 16:00:55 67° 102° (ESE) 16:05:39 437.505
TISAT 1 31 Aug 15:59:21 16:02:29 21° 293° (WNW) 16:05:36 437.305
